Back to catalog

COSMOS 1292

AliveMilitaryLEO
NORAD 12641·PAYLOAD·🇷🇺 Russia

Launched Aug 6, 1981 from Plesetsk Cosmodrome

Loading…

Next Passes (next 24 hours)

TLE

FreshSource: Space-Track

Epoch: Sep 14, 2026, 10:55 UTC

1 12641U 81074F   26257.45514044 -.00000022  00000-0 -40707-4 0  9991
2 12641  74.0300 268.2631 0008313   4.8313  66.2164 12.48742645 56225

Track COSMOS 1292 in real time with AllMySat

Download on the App Store